Weather History for KPGA - July, 2013

Change the Weather History Date:

Saturday, July 6, 2013

  Actual Average Record
Temperature  
Mean Temperature 83 °F -  
Max Temperature 93 °F 97 °F 108 °F (1985)
Min Temperature 73 °F 68 °F 56 °F (1982)
Cooling Degree Days 18    
Growing Degree Days 33 (Base 50)    
Moisture  
Dew Point 51 °F    
Average Humidity 33    
Maximum Humidity 50    
Minimum Humidity 18    
Precipitation  
Precipitation 0.00 in - - ()
Sea Level Pressure  
Sea Level Pressure 29.78 in    
Wind  
Wind Speed 5 mph (South)    
Max Wind Speed 16 mph    
Max Gust Speed 32 mph    
Visibility 10 miles    
Events Rain , Thunderstorm    
Averages and records for this station are not official NWS values.
T = Trace of Precipitation, MM = Missing Value Source: NWS Daily Summary

Daily Weather History Graph

Daily Weather History Graph

Search for Another Location

Airport or City:

Trip Planner

Search our weather history database for the weather conditions in past years. The results will help you decide how hot, cold, wet, or windy it might be!

Date:

Astronomy

Jul. 06, 2013 Rise Set
Actual Time 5:12 AM MST 7:48 PM MST
Civil Twilight 4:42 AM MST 8:18 PM MST
Nautical Twilight 4:04 AM MST 8:56 PM MST
Astronomical Twilight 3:22 AM MST 9:38 PM MST
Moon 4:00 AM MST (7/6) 6:33 PM MST (7/6)
Length of Visible Light 15h 36m
Length of Day
14h 35m
Waning Crescent, 2% of the Moon is Illuminated
Jul 6
Waning Crescent
Jul 8
New
Jul 15
First Quarter
Jul 22
Full
Jul 29
Last Quarter

Hourly Weather History & Observations

Time (MST) Temp. Heat Index Dew Point Humidity Pressure Visibility Wind Dir Wind Speed Gust Speed Precip Events Conditions
12:53 AM 75.9 °F - 50.0 °F 40% 29.72 in 10.0 mi SSE 3.5 mph - N/A   Clear
1:53 AM 77.0 °F - 50.0 °F 39% 29.74 in 10.0 mi South 3.5 mph - N/A   Clear
2:53 AM 75.9 °F - 48.9 °F 38% 29.73 in 10.0 mi Calm Calm - N/A   Clear
3:53 AM 75.0 °F - 55.0 °F 50% 29.74 in 10.0 mi NW 3.5 mph - N/A   Clear
4:53 AM 73.9 °F - 52.0 °F 46% 29.78 in 10.0 mi Calm Calm - N/A   Clear
5:53 AM 75.0 °F - 54.0 °F 48% 29.78 in 10.0 mi Calm Calm - N/A   Clear
6:53 AM 75.9 °F - 54.0 °F 46% 29.79 in 10.0 mi Calm Calm - N/A   Clear
7:53 AM 78.1 °F - 55.0 °F 45% 29.81 in 10.0 mi North 6.9 mph - N/A   Clear
8:53 AM 80.1 °F 79.9 °F 53.1 °F 39% 29.81 in 10.0 mi NNW 5.8 mph - N/A   Clear
9:53 AM 82.9 °F 82.0 °F 55.0 °F 38% 29.81 in 10.0 mi Calm Calm - N/A   Clear
10:53 AM 88.0 °F - 52.0 °F 29% 29.79 in 10.0 mi North 5.8 mph - N/A   Clear
11:53 AM 91.0 °F - 50.0 °F 24% 29.77 in 10.0 mi Variable 4.6 mph - N/A   Clear
12:53 PM 93.0 °F - 48.9 °F 22% 29.74 in 10.0 mi North 8.1 mph - N/A   Clear
1:53 PM 91.9 °F - 48.0 °F 22% 29.71 in 10.0 mi Variable 4.6 mph - N/A   Clear
2:53 PM 91.0 °F - 50.0 °F 24% 29.73 in 10.0 mi SSW 9.2 mph - 0.00 in Rain Light Rain
3:02 PM 89.6 °F - 51.8 °F 27% 29.94 in 10.0 mi South 12.7 mph 19.6 mph 0.00 in Rain , Thunderstorm Light Rain
3:17 PM 89.6 °F - 48.2 °F 24% 29.93 in 10.0 mi South 15.0 mph 23.0 mph 0.00 in   Scattered Clouds
3:53 PM 91.0 °F - 43.0 °F 19% 29.70 in 10.0 mi South 10.4 mph - 0.00 in   Clear
4:53 PM 84.0 °F - 46.9 °F 27% 29.73 in 10.0 mi SSW 16.1 mph 32.2 mph N/A   Clear
5:53 PM 84.0 °F - 46.0 °F 26% 29.73 in 10.0 mi SW 13.8 mph 24.2 mph N/A   Clear
6:53 PM 82.0 °F - 52.0 °F 35% 29.80 in 10.0 mi SE 4.6 mph - N/A   Partly Cloudy
7:53 PM 81.0 °F - 50.0 °F 34% 29.80 in 10.0 mi South 8.1 mph - N/A   Clear
8:53 PM 81.0 °F - 50.0 °F 34% 29.80 in 10.0 mi South 9.2 mph - N/A   Clear
9:53 PM 80.1 °F - 50.0 °F 35% 29.81 in 10.0 mi South 5.8 mph - N/A   Clear
10:53 PM 79.0 °F - 50.0 °F 36% 29.79 in 10.0 mi SW 3.5 mph - N/A   Clear
11:53 PM 78.1 °F - 51.1 °F 39% 29.79 in 10.0 mi SSE 6.9 mph - N/A   Clear